Regional Weather Roundup
Issued by NWS Albany, NY

Home | Current Version | Previous Version | Text Only | Print | Product List | Glossary On
Versions: 1 2 3 4 5 6 7 8 9 10 11 12 13 14 15 16 17 18 19 20 21 22 23 24 25 26 27 28 29 30 31 32 33 34 35 36 37 38 39 40 41 42 43 44 45 46 47 48 49 50
000
ASUS41 KALY 020310
RWRALY

NEW YORK STATE HOURLY WEATHER ROUNDUP
NATIONAL WEATHER SERVICE ALBANY NY
1100 PM EDT TUE SEP 01 2015

NOTE: "FAIR" INDICATES FEW OR NO CLOUDS BELOW 12,000 FEET WITH NO
SIGNIFICANT WEATHER AND/OR NO OBSTRUCTIONS TO VISIBILITY.

NYZ032-033-038>043-046>054-057>066-NYZ062>081-020400-
EAST


CITY           SKY/WX    TMP DP  RH WIND       PRES   REMARKS
ALBANY         CLEAR     71  64  78 E3        30.04S
GLENS FALLS    CLEAR     67  63  87 CALM      30.02F
POUGHKEEPSIE   CLEAR     67  62  84 CALM      30.04S
NEWBURGH       CLEAR     70  64  83 CALM      30.06S
MONTGOMERY     CLEAR     64  62  93 SW3       30.05S
WHITE PLAINS   CLEAR     69  64  84 CALM      30.06S
ISLIP          CLEAR     73  68  84 S5        30.04S
NEW YORK CITY  CLEAR     77  66  68 S6        30.05R
CENTRAL PARK   CLEAR     78  63  59 CALM      30.08R
$$

NYZ005>009-017-018-044>046-055-056-020400-
CENTRAL


CITY           SKY/WX    TMP DP  RH WIND       PRES   REMARKS
FULTON         FOG       66  64  93 CALM      30.05S VSB 1
SYRACUSE       CLEAR     69  68  96 E3        30.04S FOG
ROME           CLEAR     65  63  93 CALM      30.07S
ELMIRA         CLEAR     66  65  96 CALM      30.08S
BINGHAMTON     CLEAR     70  65  84 CALM      30.11S
MONTICELLO     CLEAR     64  63  94 CALM      30.12S
$$

NYZ026>034-041>043-020400-
NORTH


CITY           SKY/WX    TMP DP  RH WIND       PRES   REMARKS
WATERTOWN      CLEAR     61  60  97 CALM      30.03S FOG
FORT DRUM      NOT AVBL
MASSENA        CLEAR     66  64  93 S5        30.01F
SARANAC LAKE   FOG       58  57  97 CALM      30.08S VSB 1/2
PLATTSBURGH    CLEAR     66  63  90 CALM      30.00F
$$

NYZ001>004-010>016-019>021-020400-
WEST


CITY           SKY/WX    TMP DP  RH WIND       PRES   REMARKS
NIAGARA FALLS  CLEAR     71  69  93 SW5       30.04F FOG
BUFFALO        CLEAR     72  68  87 S7        30.06F FOG
DUNKIRK        CLEAR     69  65  86 S5        30.08S
JAMESTOWN      CLEAR     66  61  82 W5        30.13S
WELLSVILLE     CLEAR     67  62  84 CALM      30.16S
ROCHESTER      CLEAR     70  67  90 SW3       30.05F
PENN YAN       CLEAR     68  65  90 CALM      30.08F
$$

             KEY
       WCI = WIND CHILL INDEX
       VSB = VISIBILITY
       HX  = HEAT INDEX
$$



USA.gov is the U.S. government's official web portal to all federal, state and local government web resources and services.